Wind_Speed
15 14 13 12 10 9 7 7 7 8 9 11 12 14 16 18 20 21 23 24 26 27 28 29 29 29 29 28 28 28 28 27 26 25 25 25 25 24
16 16 14 13 12 11 10 9 9 9 10 11 13 15 16 18 20 21 23 24 26 27 28 29 30 30 29 29 29 29 29 28 27 27 26 26 26 26
17 17 16 15 14 13 12 12 11 11 11 12 14 16 17 18 19 20 22 23 25 27 29 30 30 30 29 29 29 29 29 29 28 28 27 27 27 26
18 18 18 17 17 15 15 15 14 14 14 14 15 16 17 18 20 21 22 23 25 27 29 30 30 30 31 31 30 31 31 30 30 29 29 29 28 28
20 20 20 20 20 19 18 18 17 17 16 17 17 18 19 20 21 23 24 25 26 27 29 31 31 31 32 32 32 32 32 31 31 30 30 29 29 29
24 24 23 23 22 22 22 21 21 20 19 19 19 20 21 21 23 24 25 26 28 29 30 31 32 32 33 33 33 33 33 32 32 32 31 31 31 30
26 27 27 27 26 25 25 24 23 23 23 22 22 22 23 23 25 25 26 27 28 29 30 31 32 32 32 33 33 34 34 34 34 33 33 33 32 32
30 30 31 30 30 29 28 28 27 27 26 25 25 25 26 26 27 28 28 29 30 31 31 32 32 33 33 32 33 33 34 34 34 34 34 33 33 33
33 34 34 34 33 32 31 31 31 31 30 29 28 28 28 29 29 30 30 30 31 32 32 33 33 33 33 34 34 33 33 34 34 33 34 34 33 33
38 38 39 38 37 36 35 35 34 34 34 34 33 32 32 32 32 32 32 32 33 33 34 34 34 34 34 34 35 34 34 34 33 33 33 34 34 34
43 43 43 43 42 41 40 39 37 37 37 38 37 36 36 35 35 35 35 35 35 35 36 35 36 36 35 34 35 35 35 34 34 33 33 34 34 35
47 47 47 47 46 45 44 43 42 41 41 40 40 39 39 38 38 37 37 37 37 36 37 37 36 36 36 36 35 35 35 35 34 34 34 34 34 34
50 50 50 50 49 48 48 47 46 45 44 44 42 41 41 42 41 40 40 39 39 38 38 37 37 38 38 37 37 36 36 36 35 35 35 34 34 34
54 53 52 51 51 50 50 49 49 48 47 47 46 45 44 44 44 43 42 42 41 40 40 40 39 39 39 39 38 37 37 37 36 36 36 35 35 34
56 55 53 52 52 51 51 50 50 50 49 48 48 47 47 47 47 46 45 44 43 42 42 42 42 41 41 40 39 39 38 38 37 36 36 35 35 34
57 56 55 54 54 53 52 51 51 51 51 50 49 48 49 48 48 48 48 46 45 44 44 43 43 43 42 40 40 40 40 39 37 37 36 35 34 34
59 57 56 56 55 54 52 52 51 51 51 51 50 50 50 50 49 49 49 48 47 46 45 45 44 44 43 42 41 40 40 39 38 38 37 36 35 35
59 57 56 56 55 52 50 49 49 49 49 50 49 49 49 50 50 49 50 50 49 47 46 46 46 45 45 43 42 40 40 39 38 38 37 36 35 35
58 57 55 53 52 50 48 47 47 47 47 49 49 50 49 50 51 50 50 50 50 49 48 47 47 47 46 44 42 42 41 40 39 37 37 36 35 35
58 56 54 52 51 49 48 47 47 46 46 48 49 50 50 50 51 51 51 51 51 50 49 49 48 48 46 45 44 43 43 42 41 39 38 37 36 36
57 56 54 52 51 49 48 48 48 46 46 48 49 51 51 50 50 50 51 51 51 50 49 49 48 48 47 47 46 45 44 43 42 40 39 38 37 36
58 56 53 52 51 50 49 49 48 47 46 47 49 50 51 50 49 49 50 50 50 49 48 47 48 48 47 46 45 45 44 43 42 40 39 38 37 36
57 55 53 51 50 49 48 47 47 46 45 45 46 49 50 50 48 47 48 49 49 49 48 47 47 48 47 46 45 44 44 43 41 40 39 38 36 36
Wind_Direction
355 354 349 343 336 327 313 299 288 278 263 248 240 236 234 230 227 225 225 225 225 224 223 223 223 224 224 226 228 229 229 230 232 233 234 236 236 238
345 344 343 339 332 323 314 302 292 281 266 253 245 240 236 233 231 228 226 225 226 226 226 226 226 227 226 227 229 231 232 233 235 236 237 237 239 243
337 336 335 331 326 318 311 303 295 285 271 259 251 244 239 236 232 229 227 228 228 227 227 227 227 228 228 229 231 232 233 236 237 238 239 240 242 244
331 330 328 325 320 314 307 301 295 286 275 264 255 250 244 238 236 234 231 231 230 229 228 228 228 230 231 233 235 234 235 237 239 240 242 243 243 244
325 324 322 319 314 308 303 299 294 286 277 268 259 253 247 242 240 238 234 234 233 232 231 230 231 233 233 234 236 236 236 237 239 240 243 244 246 247
320 319 317 314 311 306 301 296 292 286 278 270 262 255 250 246 244 242 240 237 235 235 234 233 233 235 235 235 237 237 237 238 239 242 244 246 247 247
316 314 312 310 307 304 299 293 290 285 279 271 263 257 251 248 246 245 243 240 238 237 237 237 236 237 237 236 238 238 238 239 241 243 244 246 247 247
312 311 309 306 304 300 296 290 286 283 278 273 266 260 255 251 248 247 244 242 240 239 239 239 239 238 237 237 237 238 240 241 241 243 244 245 246 247
308 307 305 304 301 297 293 289 285 280 275 270 265 262 257 255 251 248 246 245 243 241 240 240 239 238 239 239 239 239 241 241 241 242 244 245 246 247
305 303 302 300 298 295 291 288 284 280 274 269 264 259 257 256 253 250 248 246 245 244 242 241 240 239 239 239 240 240 240 241 240 242 244 245 246 247
303 302 300 297 295 293 289 286 283 279 274 270 263 258 255 253 252 250 249 248 246 245 244 242 242 241 240 240 240 239 239 240 241 242 245 246 247 248
301 300 298 296 293 291 287 284 281 277 273 269 263 259 255 252 250 250 249 247 246 245 244 242 241 240 239 239 239 239 239 240 241 243 244 247 248 248
300 298 296 293 291 288 285 282 279 277 273 268 263 259 256 253 250 248 247 247 246 244 243 242 240 240 240 239 240 240 240 240 242 243 244 245 248 248
300 298 295 292 289 286 282 279 277 275 271 267 262 257 255 253 250 248 247 246 245 244 243 242 241 240 240 240 240 239 240 241 242 244 244 244 246 248
299 297 295 291 288 284 281 278 275 272 269 266 262 257 253 251 249 247 247 246 245 243 243 242 241 240 240 241 241 241 241 241 243 244 244 245 246 247
298 296 294 291 288 284 280 276 273 271 268 264 262 257 253 250 248 247 245 244 244 243 243 241 240 240 240 241 240 241 242 242 243 243 243 244 246 247
298 296 294 291 288 284 279 275 272 271 267 263 260 255 253 249 247 246 245 243 243 243 243 241 240 240 240 241 240 240 240 240 241 242 243 244 245 247
297 296 294 291 288 284 279 274 270 270 266 261 257 252 251 248 247 245 244 244 243 242 242 240 239 239 240 240 239 240 240 240 241 242 242 243 245 247
297 295 293 291 288 284 279 274 270 269 266 260 255 250 248 247 246 244 242 242 242 241 241 240 239 239 239 239 239 240 240 241 241 241 243 243 244 246
297 295 293 290 287 284 279 275 271 269 265 259 254 249 247 247 245 243 240 241 240 239 239 238 238 238 239 239 238 238 238 240 241 242 243 243 244 244
295 294 292 289 286 283 280 276 272 269 266 260 255 249 246 247 245 242 240 239 238 237 237 237 236 236 237 237 237 237 237 238 239 241 242 242 242 244
295 293 291 288 286 283 280 277 273 269 266 261 255 250 246 243 243 241 237 236 236 235 236 236 235 234 234 235 236 236 236 236 238 239 241 241 242 243
295 292 290 288 285 282 280 277 272 268 264 259 253 248 244 240 240 239 235 233 233 233 234 233 232 231 232 232 233 235 235 236 237 238 239 240 241 243
Height
5818 5816 5815 5813 5812 5811 5810 5810 5810 5809 5809 5809 5810 5811 5812 5814 5816 5818 5821 5824 5827 5830 5833 5836 5839 5842 5846 5849 5852 5854 5857 5860 5862 5865 5867 5869 5871 5873
5817 5815 5814 5812 5811 5810 5809 5808 5807 5807 5806 5807 5807 5808 5809 5810 5812 5814 5816 5819 5821 5825 5828 5831 5834 5837 5840 5843 5846 5849 5851 5854 5857 5859 5861 5863 5865 5867
5816 5814 5812 5810 5809 5808 5806 5805 5804 5804 5803 5803 5803 5804 5805 5806 5808 5810 5812 5814 5816 5819 5822 5825 5828 5831 5834 5837 5840 5843 5845 5848 5850 5853 5855 5857 5859 5861
5814 5812 5810 5808 5806 5804 5803 5802 5801 5800 5800 5800 5800 5800 5801 5802 5803 5805 5807 5808 5811 5813 5816 5819 5822 5825 5828 5831 5833 5836 5839 5841 5844 5846 5848 5851 5853 5854
5811 5809 5807 5804 5802 5801 5799 5798 5796 5795 5795 5795 5795 5795 5796 5797 5798 5799 5801 5803 5805 5807 5809 5812 5815 5818 5820 5823 5826 5829 5832 5834 5836 5839 5841 5843 5845 5847
5807 5805 5802 5800 5798 5796 5794 5792 5791 5790 5789 5789 5789 5789 5790 5791 5792 5793 5794 5796 5798 5800 5802 5805 5807 5810 5813 5816 5819 5821 5824 5826 5829 5831 5834 5836 5838 5840
5802 5799 5796 5794 5792 5789 5787 5786 5784 5783 5782 5782 5782 5783 5783 5784 5785 5786 5787 5789 5791 5793 5795 5798 5800 5803 5805 5807 5810 5813 5815 5818 5821 5823 5825 5828 5830 5832
5796 5793 5790 5787 5784 5782 5780 5778 5777 5775 5774 5774 5774 5775 5776 5776 5777 5778 5779 5781 5783 5785 5787 5789 5791 5794 5796 5799 5801 5804 5807 5809 5812 5814 5817 5819 5821 5823
5788 5785 5782 5778 5775 5773 5771 5769 5768 5766 5765 5765 5765 5766 5767 5768 5768 5769 5770 5772 5774 5776 5778 5780 5783 5785 5788 5790 5793 5795 5798 5800 5803 5806 5808 5810 5812 5814
5778 5775 5771 5768 5764 5762 5761 5759 5757 5756 5755 5754 5755 5756 5757 5758 5759 5760 5761 5763 5765 5767 5769 5772 5774 5776 5778 5781 5783 5786 5788 5791 5794 5796 5799 5801 5803 5805
5767 5763 5759 5755 5752 5749 5747 5746 5745 5744 5742 5742 5743 5744 5745 5747 5748 5749 5751 5753 5756 5757 5759 5762 5764 5766 5769 5771 5774 5776 5779 5782 5785 5787 5789 5792 5793 5795
5754 5749 5744 5740 5737 5734 5732 5731 5730 5729 5728 5728 5729 5731 5732 5734 5736 5738 5740 5742 5745 5748 5749 5751 5754 5756 5759 5762 5764 5767 5769 5772 5775 5777 5779 5782 5784 5786
5739 5734 5729 5724 5721 5718 5715 5714 5713 5712 5712 5712 5714 5716 5718 5721 5723 5725 5728 5730 5734 5737 5739 5741 5744 5746 5749 5752 5754 5757 5760 5762 5765 5767 5770 5772 5774 5776
5722 5717 5712 5708 5704 5700 5698 5696 5695 5694 5695 5696 5697 5700 5703 5706 5708 5711 5714 5717 5721 5724 5727 5729 5732 5735 5738 5741 5744 5747 5749 5752 5755 5757 5760 5762 5764 5766
5703 5699 5694 5689 5686 5683 5680 5678 5677 5676 5676 5678 5680 5683 5686 5689 5692 5696 5699 5703 5706 5710 5713 5717 5721 5724 5727 5730 5733 5736 5739 5741 5744 5747 5749 5752 5754 5756
5685 5681 5676 5671 5667 5663 5661 5659 5658 5657 5658 5660 5662 5665 5668 5672 5676 5680 5684 5688 5692 5696 5700 5704 5707 5711 5715 5719 5722 5725 5728 5731 5734 5736 5739 5741 5744 5746
5666 5662 5657 5652 5648 5644 5641 5640 5639 5638 5639 5641 5643 5647 5650 5654 5659 5663 5668 5672 5677 5682 5686 5690 5694 5698 5702 5706 5710 5714 5717 5720 5723 5725 5728 5731 5734 5736
5647 5642 5637 5632 5628 5625 5622 5621 5621 5620 5620 5621 5624 5628 5633 5637 5642 5647 5651 5656 5661 5666 5671 5676 5680 5685 5689 5694 5699 5702 5705 5709 5712 5714 5717 5720 5723 5726
5628 5623 5618 5614 5610 5607 5605 5604 5604 5603 5603 5603 5606 5611 5615 5620 5624 5629 5635 5640 5645 5651 5657 5662 5666 5671 5676 5682 5687 5690 5694 5697 5700 5703 5707 5710 5713 5715
5609 5605 5601 5597 5593 5591 5589 5587 5587 5586 5586 5587 5589 5593 5598 5602 5607 5613 5618 5624 5630 5635 5641 5647 5652 5658 5663 5669 5674 5678 5681 5685 5689 5692 5695 5698 5701 5704
5592 5587 5583 5579 5576 5574 5572 5570 5569 5569 5569 5570 5572 5575 5580 5584 5589 5595 5601 5607 5613 5619 5625 5632 5638 5644 5648 5653 5659 5664 5669 5673 5677 5681 5684 5687 5690 5693
5575 5570 5566 5562 5559 5556 5554 5553 5552 5552 5552 5553 5555 5558 5562 5566 5572 5578 5584 5590 5597 5604 5610 5616 5622 5628 5634 5640 5646 5651 5656 5661 5665 5669 5673 5677 5680 5683
5557 5552 5548 5545 5541 5539 5537 5535 5534 5535 5535 5536 5538 5541 5545 5550 5556 5561 5567 5574 5581 5589 5595 5601 5608 5614 5620 5626 5632 5638 5643 5648 5653 5657 5662 5665 5669 5672